| time (UTC) | temp C | wind direction | speed KPH | gust KPH | rain 1hr cm | rain 24hr cm | rain mn cm | humidity % | barometer mb |
| 20260504220837 | 27 | 200 | 3.2 | 9.7 | 0.00 | 0.00 | 0.00 | 64 | 1009.8 |
| 20260504220331 | 27 | 170 | 0.0 | 9.7 | 0.00 | 0.00 | 0.00 | 64 | 1009.8 |
| 20260504215825 | 27 | 163 | 3.2 | 9.7 | 0.00 | 0.00 | 0.00 | 63 | 1010.2 |
| 20260504215319 | 27 | 176 | 1.6 | 9.7 | 0.00 | 0.00 | 0.00 | 63 | 1009.8 |
| 20260504214816 | 27 | 159 | 3.2 | 6.4 | 0.00 | 0.00 | 0.00 | 63 | 1010.2 |
| 20260504214310 | 27 | 192 | 0.0 | 16.1 | 0.00 | 0.00 | 0.00 | 62 | 1009.8 |
| 20260504213803 | 27 | 215 | 9.7 | 16.1 | 0.00 | 0.00 | 0.00 | 62 | 1010.2 |
| 20260504213256 | 27 | 139 | 0.0 | 11.3 | 0.00 | 0.00 | 0.00 | 61 | 1010.2 |
| 20260504212754 | 27 | 165 | 0.0 | 11.3 | 0.00 | 0.00 | 0.00 | 61 | 1010.2 |
| 20260504212247 | 27 | 238 | 3.2 | 11.3 | 0.00 | 0.00 | 0.00 | 61 | 1010.2 |
| 20260504211741 | 28 | 167 | 6.4 | 11.3 | 0.00 | 0.00 | 0.00 | 60 | 1010.2 |
| 20260504211235 | 28 | 187 | 3.2 | 9.7 | 0.00 | 0.00 | 0.00 | 60 | 1010.5 |
| 20260504210949 | 28 | 103 | 1.6 | 9.7 | 0.00 | 0.00 | 0.00 | 59 | 1010.2 |
| 20260504210219 | 28 | 112 | 0.0 | 11.3 | 0.00 | 0.00 | 0.00 | 59 | 1010.2 |
| 20260504205711 | 28 | 162 | 3.2 | 11.3 | 0.00 | 0.00 | 0.00 | 58 | 1010.5 |
| 20260504205205 | 29 | 162 | 1.6 | 4.8 | 0.00 | 0.00 | 0.00 | 57 | 1010.5 |
| 20260504204704 | 29 | 40 | 1.6 | 4.8 | 0.00 | 0.00 | 0.00 | 57 | 1010.5 |
| 20260504204154 | 29 | 141 | 1.6 | 6.4 | 0.00 | 0.00 | 0.00 | 57 | 1010.5 |
| 20260504203646 | 29 | 179 | 0.0 | 11.3 | 0.00 | 0.00 | 0.00 | 55 | 1010.5 |
| 20260504203400 | 28 | 118 | 0.0 | 11.3 | 0.00 | 0.00 | 0.00 | 58 | 1010.5 |
| 20260504202636 | 28 | 164 | 4.8 | 11.3 | 0.00 | 0.00 | 0.00 | 57 | 1010.8 |
| 20260504202129 | 28 | 174 | 4.8 | 11.3 | 0.00 | 0.00 | 0.00 | 56 | 1010.8 |
| 20260504201624 | 28 | 183 | 0.0 | 9.7 | 0.00 | 0.00 | 0.00 | 58 | 1010.8 |
| 20260504201114 | 29 | 135 | 3.2 | 3.2 | 0.00 | 0.00 | 0.00 | 57 | 1011.2 |
| 20260504200611 | 28 | 131 | 0.0 | 11.3 | 0.00 | 0.00 | 0.00 | 56 | 1011.2 |
| 20260504200328 | 28 | 154 | 6.4 | 16.1 | 0.00 | 0.00 | 0.00 | 57 | 1011.2 |
| 20260504195557 | 29 | 134 | 0.0 | 16.1 | 0.00 | 0.00 | 0.00 | 57 | 1011.2 |
| 20260504195050 | 29 | 221 | 4.8 | 9.7 | 0.00 | 0.00 | 0.00 | 56 | 1011.2 |
| 20260504194548 | 29 | 155 | 3.2 | 9.7 | 0.00 | 0.00 | 0.00 | 54 | 1011.5 |
| 20260504194041 | 29 | 123 | 0.0 | 12.9 | 0.00 | 0.00 | 0.00 | 53 | 1011.5 |
| 20260504193535 | 30 | 166 | 6.4 | 12.9 | 0.00 | 0.00 | 0.00 | 54 | 1011.5 |
| 20260504193250 | 30 | 163 | 0.0 | 9.7 | 0.00 | 0.00 | 0.00 | 53 | 1011.5 |
| 20260504192526 | 29 | 124 | 0.0 | 11.3 | 0.00 | 0.00 | 0.00 | 54 | 1011.5 |
| 20260504192239 | 29 | 243 | 1.6 | 11.3 | 0.00 | 0.00 | 0.00 | 53 | 1011.9 |
| 20260504191511 | 29 | 149 | 6.4 | 9.7 | 0.00 | 0.00 | 0.00 | 54 | 1011.9 |
| 20260504191228 | 29 | 198 | 3.2 | 14.5 | 0.00 | 0.00 | 0.00 | 53 | 1011.9 |
| 20260504185953 | 28 | 174 | 0.0 | 9.7 | 0.00 | 0.00 | 0.00 | 55 | 1011.9 |
| 20260504185715 | 29 | 183 | 1.6 | 9.7 | 0.00 | 0.00 | 0.00 | 55 | 1011.9 |
| 20260504184937 | 29 | 141 | 0.0 | 9.7 | 0.00 | 0.00 | 0.00 | 55 | 1012.2 |
| 20260504184653 | 29 | 207 | 0.0 | 6.4 | 0.00 | 0.00 | 0.00 | 53 | 1012.2 |
| 20260504183931 | 29 | 172 | 3.2 | 6.4 | 0.00 | 0.00 | 0.00 | 54 | 1012.2 |
| 20260504183423 | 29 | 166 | 0.0 | 16.1 | 0.00 | 0.00 | 0.00 | 54 | 1012.2 |
| 20260504182917 | 28 | 261 | 3.2 | 16.1 | 0.00 | 0.00 | 0.00 | 55 | 1011.9 |
| 20260504182412 | 28 | 111 | 3.2 | 11.3 | 0.00 | 0.00 | 0.00 | 55 | 1011.9 |
| 20260504181905 | 28 | 152 | 3.2 | 11.3 | 0.00 | 0.00 | 0.00 | 56 | 1012.2 |
| 20260504181357 | 28 | 120 | 0.0 | 6.4 | 0.00 | 0.00 | 0.00 | 56 | 1012.5 |
| 20260504181113 | 28 | 155 | 1.6 | 9.7 | 0.00 | 0.00 | 0.00 | 55 | 1012.5 |
| 20260504180322 | 28 | 145 | 0.0 | 9.7 | 0.00 | 0.00 | 0.00 | 55 | 1012.5 |
| 20260504175815 | 28 | 132 | 0.0 | 14.5 | 0.00 | 0.00 | 0.00 | 56 | 1012.9 |
| 20260504175307 | 28 | 148 | 1.6 | 14.5 | 0.00 | 0.00 | 0.00 | 54 | 1012.5 |
| 20260504175020 | 28 | 201 | 3.2 | 11.3 | 0.00 | 0.00 | 0.00 | 56 | 1012.9 |
| 20260504174257 | 27 | 166 | 3.2 | 16.1 | 0.00 | 0.00 | 0.00 | 58 | 1012.9 |
| 20260504173751 | 27 | 114 | 6.4 | 16.1 | 0.00 | 0.00 | 0.00 | 57 | 1012.9 |
| 20260504173507 | 27 | 161 | 8.0 | 12.9 | 0.00 | 0.00 | 0.00 | 56 | 1012.9 |
| 20260504172735 | 28 | 177 | 0.0 | 9.7 | 0.00 | 0.00 | 0.00 | 55 | 1012.9 |
| 20260504172235 | 28 | 345 | 0.0 | 6.4 | 0.00 | 0.00 | 0.00 | 55 | 1012.9 |
| 20260504171728 | 28 | 181 | 0.0 | 6.4 | 0.00 | 0.00 | 0.00 | 54 | 1013.2 |
| 20260504171436 | 27 | 91 | 0.0 | 9.7 | 0.00 | 0.00 | 0.00 | 56 | 1013.2 |
| 20260504170935 | 27 | 126 | 4.8 | 9.7 | 0.00 | 0.00 | 0.00 | 57 | 1013.2 |
| 20260504170212 | 28 | 176 | 1.6 | 9.7 | 0.00 | 0.00 | 0.00 | 57 | 1013.6 |
| 20260504160108 | 26 | 139 | 6.4 | 11.3 | 0.00 | 0.00 | 0.00 | 61 | 1014.2 |
| 20260504151007 | 25 | 188 | 0.0 | 12.9 | 0.00 | 0.00 | 0.00 | 63 | 1014.2 |
| 20260504150457 | 25 | 328 | 1.6 | 14.5 | 0.00 | 0.00 | 0.00 | 63 | 1014.2 |
| 20260504140849 | 22 | 160 | 0.0 | 1.6 | 0.00 | 0.00 | 0.00 | 66 | 1014.2 |
| 20260504140600 | 22 | 74 | 0.0 | 3.2 | 0.00 | 0.00 | 0.00 | 67 | 1014.2 |
| 20260504130751 | -17 | 0.0 | 0.0 | 0.00 | 0.00 | 0.00 | 1014.2 | ||
| 20260504130247 | -17 | 0.0 | 0.0 | 0.00 | 0.00 | 0.00 | 1014.2 | ||
| 20260504120120 | -17 | 0.0 | 0.0 | 0.00 | 0.00 | 0.00 | 1013.9 | ||
| 20260504110534 | -17 | 0.0 | 0.0 | 0.00 | 0.00 | 0.00 | 1013.9 | ||
| 20260504100428 | -17 | 0.0 | 0.0 | 0.00 | 0.00 | 0.00 | 1013.9 | ||
| 20260504100144 | -17 | 0.0 | 0.0 | 0.00 | 0.00 | 0.00 | 1014.2 | ||
| 20260504082007 | -17 | 0.0 | 0.0 | 0.00 | 0.00 | 0.00 | 1014.6 | ||
| 20260504081240 | -17 | 0.0 | 0.0 | 0.00 | 0.00 | 0.00 | 1014.6 | ||
| 20260504080733 | -17 | 0.0 | 0.0 | 0.00 | 0.00 | 0.00 | 1014.9 | ||
| 20260504080227 | -17 | 0.0 | 0.0 | 0.00 | 0.00 | 0.00 | 1014.9 | ||
| 20260504070120 | -17 | 0.0 | 0.0 | 0.00 | 0.00 | 0.00 | 1015.9 | ||
| 20260504050436 | -17 | 0.0 | 0.0 | 0.00 | 0.00 | 0.00 | 1016.6 | ||
| 20260504045925 | -17 | 0.0 | 0.0 | 0.00 | 0.00 | 0.00 | 1016.6 | ||
| 20260504045419 | -17 | 0.0 | 0.0 | 0.00 | 0.00 | 0.00 | 1016.6 | ||
| 20260504044916 | -17 | 0.0 | 0.0 | 0.00 | 0.00 | 0.00 | 1016.6 | ||
| 20260504044408 | -17 | 0.0 | 0.0 | 0.00 | 0.00 | 0.00 | 1016.6 | ||
| 20260504043908 | -17 | 0.0 | 0.0 | 0.00 | 0.00 | 0.00 | 1016.6 | ||
| 20260504043404 | -17 | 0.0 | 0.0 | 0.00 | 0.00 | 0.00 | 1016.6 | ||
| 20260504042858 | -17 | 0.0 | 0.0 | 0.00 | 0.00 | 0.00 | 1016.6 | ||
| 20260504042353 | -17 | 0.0 | 0.0 | 0.00 | 0.00 | 0.00 | 1016.6 | ||
| 20260504041340 | -17 | 0.0 | 0.0 | 0.00 | 0.00 | 0.00 | 1016.9 | ||
| 20260504040834 | -17 | 0.0 | 0.0 | 0.00 | 0.00 | 0.00 | 1016.9 | ||
| 20260504040330 | -17 | 0.0 | 0.0 | 0.00 | 0.00 | 0.00 | 1016.6 | ||
| 20260504035829 | -17 | 0.0 | 0.0 | 0.00 | 0.00 | 0.00 | 1016.9 | ||
| 20260504035547 | -17 | 0.0 | 0.0 | 0.00 | 0.00 | 0.00 | 1016.6 | ||
| 20260504034820 | -17 | 0.0 | 0.0 | 0.00 | 0.00 | 0.00 | 1016.9 | ||
| 20260504034034 | 20 | 148 | 0.0 | 0.0 | 0.00 | 0.00 | 0.00 | 63 | 1016.9 |
| 20260504033310 | 20 | 148 | 0.0 | 0.0 | 0.00 | 0.00 | 0.00 | 63 | 1016.9 |
| 20260504032803 | 20 | 148 | 0.0 | 0.0 | 0.00 | 0.00 | 0.00 | 63 | 1016.9 |
| 20260504032257 | 20 | 136 | 0.0 | 0.0 | 0.00 | 0.00 | 0.00 | 61 | 1016.9 |
| 20260504031750 | 20 | 136 | 0.0 | 0.0 | 0.00 | 0.00 | 0.00 | 61 | 1016.9 |
| 20260504031502 | 20 | 136 | 0.0 | 0.0 | 0.00 | 0.00 | 0.00 | 61 | 1016.6 |
| 20260504030733 | -17 | 0.0 | 0.0 | 0.00 | 0.00 | 0.00 | 1016.9 | ||
| 20260504030229 | 20 | 147 | 0.0 | 0.0 | 0.00 | 0.00 | 0.00 | 61 | 1016.6 |
| 20260504025728 | 20 | 136 | 0.0 | 0.0 | 0.00 | 0.00 | 0.00 | 60 | 1016.6 |
| 20260504025218 | 20 | 179 | 0.0 | 1.6 | 0.00 | 0.00 | 0.00 | 60 | 1016.6 |
| 20260504024928 | 20 | 142 | 0.0 | 1.6 | 0.00 | 0.00 | 0.00 | 60 | 1016.6 |
| 20260504024202 | 21 | 121 | 0.0 | 0.0 | 0.00 | 0.00 | 0.00 | 60 | 1016.3 |
| 20260504023703 | 21 | 121 | 0.0 | 0.0 | 0.00 | 0.00 | 0.00 | 60 | 1016.6 |
| 20260504023153 | 21 | 129 | 0.0 | 0.0 | 0.00 | 0.00 | 0.00 | 59 | 1016.3 |
| 20260504022644 | 21 | 130 | 0.0 | 1.6 | 0.00 | 0.00 | 0.00 | 59 | 1016.6 |
| 20260504022138 | 21 | 125 | 0.0 | 4.8 | 0.00 | 0.00 | 0.00 | 59 | 1016.6 |
| 20260504021636 | 21 | 132 | 0.0 | 4.8 | 0.00 | 0.00 | 0.00 | 59 | 1016.6 |
| 20260504021130 | 21 | 114 | 0.0 | 1.6 | 0.00 | 0.00 | 0.00 | 58 | 1016.3 |
| 20260504020622 | 21 | 145 | 0.0 | 6.4 | 0.00 | 0.00 | 0.00 | 57 | 1016.3 |
| 20260504020114 | 21 | 164 | 4.8 | 6.4 | 0.00 | 0.00 | 0.00 | 56 | 1016.3 |
| 20260504015616 | 22 | 141 | 0.0 | 4.8 | 0.00 | 0.00 | 0.00 | 56 | 1016.3 |
| 20260504015106 | 22 | 150 | 0.0 | 1.6 | 0.00 | 0.00 | 0.00 | 55 | 1016.3 |
| 20260504014557 | 22 | 136 | 0.0 | 3.2 | 0.00 | 0.00 | 0.00 | 56 | 1016.3 |
| 20260504014051 | 22 | 128 | 0.0 | 3.2 | 0.00 | 0.00 | 0.00 | 55 | 1016.3 |
| 20260504013549 | 22 | 119 | 0.0 | 3.2 | 0.00 | 0.00 | 0.00 | 55 | 1016.3 |
| 20260504013042 | 22 | 142 | 0.0 | 4.8 | 0.00 | 0.00 | 0.00 | 54 | 1016.3 |
| 20260504012757 | 22 | 142 | 0.0 | 4.8 | 0.00 | 0.00 | 0.00 | 53 | 1016.3 |
| 20260504012027 | 22 | 136 | 0.0 | 0.0 | 0.00 | 0.00 | 0.00 | 54 | 1016.3 |
| 20260504011526 | 22 | 129 | 0.0 | 1.6 | 0.00 | 0.00 | 0.00 | 52 | 1015.9 |
| 20260504011020 | 22 | 126 | 0.0 | 4.8 | 0.00 | 0.00 | 0.00 | 52 | 1015.9 |
| 20260504010731 | 23 | 100 | 0.0 | 4.8 | 0.00 | 0.00 | 0.00 | 51 | 1016.3 |
| 20260504010002 | 23 | 101 | 0.0 | 4.8 | 0.00 | 0.00 | 0.00 | 52 | 1016.3 |
| 20260504005503 | 23 | 205 | 0.0 | 1.6 | 0.00 | 0.00 | 0.00 | 50 | 1015.9 |
| 20260504005217 | 23 | 111 | 0.0 | 4.8 | 0.00 | 0.00 | 0.00 | 50 | 1015.9 |
| 20260504004446 | 23 | 159 | 0.0 | 4.8 | 0.00 | 0.00 | 0.00 | 49 | 1015.9 |
| 20260504003941 | 23 | 164 | 0.0 | 3.2 | 0.00 | 0.00 | 0.00 | 49 | 1016.3 |
| 20260504003658 | 23 | 151 | 0.0 | 3.2 | 0.00 | 0.00 | 0.00 | 49 | 1015.9 |
| 20260504002932 | 24 | 124 | 0.0 | 3.2 | 0.00 | 0.00 | 0.00 | 49 | 1015.9 |
| 20260504002426 | 24 | 137 | 0.0 | 3.2 | 0.00 | 0.00 | 0.00 | 47 | 1015.9 |
| 20260504001918 | 24 | 142 | 0.0 | 3.2 | 0.00 | 0.00 | 0.00 | 48 | 1015.9 |
| 20260504001415 | 25 | 131 | 0.0 | 1.6 | 0.00 | 0.00 | 0.00 | 46 | 1015.9 |
| 20260504001135 | 25 | 157 | 0.0 | 6.4 | 0.00 | 0.00 | 0.00 | 46 | 1015.9 |
| 20260504000401 | 25 | 147 | 0.0 | 6.4 | 0.00 | 0.00 | 0.00 | 45 | 1015.9 |
| 20260503235852 | 25 | 139 | 0.0 | 6.4 | 0.00 | 0.00 | 0.00 | 45 | 1016.3 |
| 20260503235351 | 25 | 179 | 0.0 | 11.3 | 0.00 | 0.00 | 0.00 | 45 | 1016.3 |
| 20260503234842 | 25 | 125 | 0.0 | 11.3 | 0.00 | 0.00 | 0.00 | 46 | 1016.3 |
| 20260503234334 | 25 | 135 | 0.0 | 9.7 | 0.00 | 0.00 | 0.00 | 47 | 1016.3 |
| 20260503233827 | 26 | 190 | 3.2 | 9.7 | 0.00 | 0.00 | 0.00 | 44 | 1016.3 |
| 20260503233325 | 26 | 134 | 6.4 | 9.7 | 0.00 | 0.00 | 0.00 | 44 | 1016.3 |
| 20260503232820 | 26 | 111 | 0.0 | 9.7 | 0.00 | 0.00 | 0.00 | 44 | 1016.3 |
| 20260503232537 | 26 | 146 | 0.0 | 16.1 | 0.00 | 0.00 | 0.00 | 44 | 1016.3 |
| 20260503231804 | 26 | 140 | 3.2 | 16.1 | 0.00 | 0.00 | 0.00 | 43 | 1016.3 |
| 20260503231305 | 26 | 185 | 4.8 | 9.7 | 0.00 | 0.00 | 0.00 | 41 | 1016.3 |
| 20260503230757 | 27 | 132 | 1.6 | 9.7 | 0.00 | 0.00 | 0.00 | 42 | 1016.3 |
| 20260503230249 | 27 | 121 | 3.2 | 9.7 | 0.00 | 0.00 | 0.00 | 42 | 1015.9 |
| 20260503225743 | 27 | 151 | 0.0 | 4.8 | 0.00 | 0.00 | 0.00 | 40 | 1016.3 |
| 20260503225241 | 27 | 117 | 3.2 | 4.8 | 0.00 | 0.00 | 0.00 | 37 | 1016.3 |
| 20260503224734 | 27 | 116 | 0.0 | 4.8 | 0.00 | 0.00 | 0.00 | 36 | 1016.6 |
| 20260503224227 | 27 | 169 | 0.0 | 1.6 | 0.00 | 0.00 | 0.00 | 35 | 1016.3 |
| 20260503223718 | 27 | 141 | 0.0 | 4.8 | 0.00 | 0.00 | 0.00 | 36 | 1016.6 |
| 20260503222709 | 27 | 124 | 0.0 | 4.8 | 0.00 | 0.00 | 0.00 | 37 | 1016.6 |
| 20260503222201 | 27 | 172 | 1.6 | 4.8 | 0.00 | 0.00 | 0.00 | 35 | 1016.6 |
| 20260503221654 | 28 | 116 | 3.2 | 3.2 | 0.00 | 0.00 | 0.00 | 35 | 1016.9 |
| 20260503221151 | 29 | 151 | 0.0 | 1.6 | 0.00 | 0.00 | 0.00 | 34 | 1016.9 |